QPF
0.00 0.00 0.00 0.00 0.00 0.00 0.00 0.00 0.00 0.00 0.00 0.00 0.01 0.01 0.01 0.02 0.04 0.05 0.01 0.00 0.00 0.00 0.00 0.01 0.01 0.01 0.01 0.01 0.01 0.01 0.01 0.01 0.01 0.01 0.01 0.01 0.01 0.01 0.01 0.00 0.00 0.00 0.00 0.00 0.00 0.01 0.00 0.00 0.01
0.00 0.00 0.00 0.00 0.00 0.00 0.00 0.00 0.00 0.00 0.00 0.01 0.00 0.01 0.02 0.04 0.04 0.02 0.01 0.00 0.00 0.00 0.01 0.01 0.02 0.02 0.01 0.01 0.01 0.01 0.01 0.01 0.01 0.01 0.00 0.00 0.01 0.01 0.01 0.01 0.01 0.01 0.01 0.00 0.00 0.01 0.00 0.00 0.01
0.00 0.00 0.00 0.00 0.00 0.00 0.00 0.00 0.00 0.00 0.00 0.00 0.00 0.00 0.01 0.04 0.04 0.01 0.00 0.00 0.00 0.00 0.01 0.03 0.04 0.02 0.01 0.01 0.01 0.01 0.00 0.00 0.01 0.00 0.00 0.01 0.01 0.01 0.01 0.01 0.01 0.01 0.01 0.01 0.01 0.01 0.00 0.00 0.01
0.00 0.00 0.00 0.00 0.00 0.00 0.00 0.00 0.00 0.00 0.00 0.00 0.00 0.00 0.01 0.01 0.01 0.00 0.00 0.00 0.00 0.00 0.01 0.02 0.03 0.03 0.02 0.01 0.01 0.01 0.01 0.01 0.01 0.01 0.01 0.01 0.01 0.01 0.01 0.01 0.01 0.01 0.01 0.01 0.01 0.01 0.01 0.01 0.01
0.00 0.00 0.00 0.00 0.00 0.00 0.00 0.00 0.00 0.00 0.00 0.00 0.00 0.00 0.01 0.01 0.01 0.00 0.00 0.00 0.00 0.00 0.00 0.01 0.02 0.03 0.03 0.02 0.01 0.01 0.01 0.01 0.01 0.01 0.01 0.01 0.01 0.01 0.01 0.01 0.01 0.01 0.01 0.01 0.01 0.01 0.01 0.01 0.02
0.00 0.00 0.00 0.00 0.00 0.00 0.00 0.00 0.00 0.00 0.00 0.00 0.00 0.01 0.02 0.02 0.01 0.01 0.00 0.00 0.00 0.00 0.01 0.02 0.03 0.05 0.05 0.03 0.03 0.02 0.02 0.02 0.02 0.01 0.01 0.01 0.01 0.02 0.02 0.02 0.02 0.01 0.01 0.01 0.01 0.01 0.01 0.01 0.02
0.00 0.00 0.00 0.00 0.00 0.00 0.00 0.00 0.00 0.00 0.01 0.01 0.01 0.01 0.02 0.02 0.02 0.01 0.01 0.00 0.01 0.01 0.02 0.02 0.03 0.05 0.06 0.05 0.04 0.04 0.03 0.02 0.02 0.02 0.01 0.01 0.01 0.01 0.02 0.03 0.03 0.03 0.02 0.02 0.02 0.01 0.01 0.01 0.02
0.00 0.00 0.00 0.00 0.00 0.00 0.00 0.00 0.00 0.01 0.01 0.01 0.02 0.02 0.02 0.02 0.03 0.02 0.02 0.02 0.02 0.03 0.03 0.05 0.05 0.06 0.05 0.04 0.04 0.05 0.03 0.02 0.02 0.02 0.01 0.01 0.01 0.01 0.02 0.02 0.04 0.04 0.04 0.04 0.03 0.03 0.02 0.01 0.02
0.00 0.00 0.00 0.00 0.00 0.00 0.00 0.00 0.00 0.00 0.00 0.01 0.01 0.02 0.02 0.03 0.04 0.03 0.02 0.03 0.03 0.05 0.05 0.06 0.06 0.07 0.06 0.05 0.04 0.05 0.04 0.03 0.02 0.02 0.02 0.02 0.03 0.03 0.03 0.03 0.04 0.04 0.04 0.04 0.04 0.03 0.03 0.02 0.01
0.00 0.00 0.00 0.00 0.00 0.00 0.00 0.00 0.00 0.00 0.00 0.01 0.01 0.02 0.03 0.03 0.04 0.04 0.02 0.02 0.04 0.07 0.05 0.07 0.08 0.08 0.07 0.06 0.07 0.08 0.06 0.04 0.03 0.04 0.04 0.05 0.06 0.06 0.04 0.04 0.05 0.06 0.07 0.06 0.04 0.03 0.03 0.03 0.03
0.00 0.00 0.00 0.00 0.00 0.00 0.00 0.00 0.00 0.01 0.01 0.01 0.02 0.02 0.03 0.03 0.03 0.04 0.04 0.05 0.06 0.06 0.05 0.07 0.08 0.09 0.08 0.10 0.09 0.08 0.07 0.06 0.04 0.04 0.05 0.07 0.06 0.05 0.06 0.08 0.07 0.09 0.09 0.09 0.07 0.07 0.06 0.05 0.05
0.00 0.00 0.00 0.00 0.00 0.00 0.00 0.00 0.00 0.02 0.02 0.01 0.02 0.04 0.06 0.05 0.04 0.06 0.07 0.08 0.08 0.08 0.08 0.08 0.09 0.10 0.09 0.08 0.09 0.08 0.07 0.06 0.05 0.05 0.06 0.07 0.08 0.09 0.09 0.09 0.09 0.11 0.11 0.12 0.11 0.11 0.09 0.06 0.06
0.00 0.00 0.00 0.00 0.00 0.00 0.00 0.00 0.00 0.01 0.01 0.03 0.04 0.06 0.09 0.10 0.09 0.10 0.10 0.09 0.11 0.10 0.08 0.06 0.09 0.13 0.10 0.08 0.08 0.07 0.06 0.06 0.07 0.08 0.09 0.09 0.10 0.10 0.09 0.09 0.09 0.09 0.10 0.10 0.10 0.08 0.07 0.07 0.06
0.00 0.00 0.00 0.00 0.00 0.00 0.00 0.00 0.00 0.01 0.01 0.04 0.07 0.10 0.14 0.17 0.14 0.13 0.14 0.12 0.11 0.10 0.09 0.05 0.05 0.08 0.11 0.09 0.08 0.09 0.09 0.09 0.09 0.09 0.09 0.10 0.09 0.08 0.09 0.08 0.08 0.07 0.07 0.07 0.08 0.09 0.10 0.09 0.07
0.00 0.00 0.00 0.00 0.00 0.00 0.00 0.00 0.01 0.01 0.02 0.09 0.12 0.13 0.14 0.19 0.17 0.14 0.15 0.16 0.10 0.09 0.11 0.08 0.06 0.06 0.09 0.09 0.09 0.10 0.11 0.11 0.12 0.11 0.09 0.08 0.06 0.05 0.05 0.05 0.05 0.05 0.04 0.04 0.05 0.07 0.08 0.07 0.06
0.00 0.00 0.00 0.00 0.00 0.00 0.00 0.01 0.02 0.02 0.04 0.11 0.13 0.13 0.15 0.15 0.16 0.13 0.13 0.14 0.15 0.12 0.12 0.12 0.08 0.06 0.08 0.09 0.11 0.12 0.14 0.14 0.13 0.09 0.07 0.05 0.04 0.02 0.03 0.03 0.03 0.02 0.03 0.03 0.04 0.05 0.06 0.06 0.06
0.00 0.00 0.00 0.00 0.00 0.00 0.00 0.01 0.01 0.02 0.04 0.07 0.09 0.12 0.15 0.12 0.13 0.12 0.11 0.13 0.16 0.14 0.12 0.12 0.11 0.10 0.11 0.13 0.12 0.10 0.11 0.11 0.09 0.07 0.05 0.03 0.02 0.02 0.02 0.03 0.01 0.01 0.03 0.03 0.03 0.03 0.05 0.04 0.05
0.00 0.00 0.00 0.00 0.00 0.00 0.00 0.01 0.01 0.02 0.04 0.05 0.08 0.11 0.12 0.11 0.11 0.10 0.10 0.12 0.12 0.12 0.11 0.11 0.10 0.11 0.10 0.09 0.08 0.07 0.07 0.07 0.05 0.05 0.04 0.03 0.02 0.02 0.02 0.02 0.01 0.02 0.03 0.03 0.03 0.03 0.02 0.02 0.03
0.00 0.00 0.00 0.00 0.00 0.00 0.00 0.00 0.01 0.01 0.03 0.03 0.05 0.08 0.09 0.08 0.09 0.12 0.12 0.14 0.09 0.09 0.10 0.11 0.12 0.11 0.10 0.09 0.08 0.06 0.06 0.06 0.05 0.04 0.03 0.03 0.02 0.02 0.03 0.01 0.01 0.01 0.02 0.03 0.02 0.02 0.02 0.02 0.02
0.00 0.00 0.00 0.00 0.00 0.00 0.00 0.00 0.00 0.00 0.01 0.03 0.04 0.05 0.07 0.07 0.08 0.11 0.12 0.14 0.09 0.08 0.08 0.09 0.12 0.11 0.11 0.08 0.06 0.05 0.06 0.04 0.03 0.02 0.02 0.01 0.02 0.02 0.02 0.02 0.01 0.01 0.02 0.01 0.01 0.01 0.01 0.02 0.01
0.00 0.00 0.00 0.00 0.00 0.00 0.00 0.00 0.00 0.00 0.00 0.01 0.03 0.05 0.05 0.06 0.07 0.09 0.13 0.13 0.09 0.07 0.07 0.07 0.08 0.09 0.10 0.08 0.05 0.05 0.04 0.02 0.02 0.02 0.02 0.01 0.01 0.02 0.02 0.01 0.01 0.01 0.01 0.01 0.02 0.02 0.02 0.02 0.01
0.00 0.00 0.00 0.00 0.00 0.00 0.00 0.00 0.00 0.00 0.00 0.00 0.01 0.02 0.02 0.03 0.04 0.06 0.09 0.12 0.08 0.07 0.07 0.06 0.06 0.07 0.07 0.06 0.05 0.05 0.03 0.02 0.02 0.02 0.01 0.01 0.01 0.01 0.01 0.01 0.01 0.01 0.01 0.01 0.01 0.01 0.01 0.01 0.01
0.00 0.00 0.00 0.00 0.00 0.00 0.00 0.00 0.00 0.00 0.00 0.00 0.00 0.01 0.01 0.01 0.03 0.05 0.06 0.11 0.09 0.08 0.07 0.05 0.04 0.05 0.05 0.04 0.04 0.04 0.03 0.02 0.01 0.01 0.01 0.01 0.01 0.01 0.00 0.01 0.01 0.01 0.00 0.00 0.01 0.01 0.00 0.00 0.00
0.00 0.00 0.00 0.00 0.00 0.01 0.00 0.00 0.00 0.00 0.00 0.00 0.00 0.00 0.00 0.01 0.02 0.05 0.06 0.08 0.08 0.08 0.06 0.04 0.03 0.04 0.04 0.03 0.02 0.03 0.03 0.02 0.02 0.01 0.01 0.00 0.00 0.00 0.00 0.00 0.00 0.00 0.00 0.01 0.01 0.00 0.00 0.00 0.00
0.00 0.00 0.00 0.01 0.01 0.01 0.00 0.00 0.00 0.00 0.00 0.00 0.00 0.00 0.00 0.00 0.01 0.04 0.04 0.05 0.05 0.05 0.04 0.02 0.03 0.03 0.02 0.02 0.02 0.02 0.03 0.02 0.02 0.01 0.01 0.00 0.00 0.00 0.00 0.00 0.00 0.00 0.00 0.00 0.00 0.00 0.00 0.00 0.00
0.00 0.00 0.00 0.01 0.00 0.00 0.00 0.00 0.00 0.00 0.00 0.00 0.00 0.00 0.00 0.01 0.02 0.03 0.03 0.03 0.03 0.02 0.01 0.02 0.02 0.02 0.01 0.02 0.02 0.02 0.02 0.02 0.01 0.01 0.01 0.00 0.00 0.00 0.00 0.00 0.00 0.00 0.00 0.00 0.00 0.00 0.00 0.00 0.00
0.00 0.00 0.00 0.00 0.00 0.00 0.00 0.00 0.00 0.00 0.00 0.00 0.00 0.00 0.00 0.00 0.01 0.02 0.01 0.01 0.01 0.00 0.01 0.01 0.02 0.02 0.02 0.02 0.02 0.01 0.01 0.01 0.00 0.01 0.00 0.00 0.00 0.00 0.00 0.00 0.00 0.00 0.00 0.00 0.00 0.00 0.00 0.00 0.00
0.00 0.00 0.00 0.01 0.01 0.01 0.00 0.00 0.00 0.00 0.00 0.00 0.00 0.00 0.00 0.00 0.00 0.00 0.00 0.00 0.00 0.00 0.00 0.01 0.02 0.02 0.02 0.02 0.01 0.00 0.00 0.00 0.00 0.00 0.00 0.00 0.00 0.00 0.00 0.00 0.00 0.00 0.00 0.00 0.00 0.00 0.00 0.00 0.00
0.00 0.00 0.00 0.00 0.00 0.01 0.01 0.00 0.00 0.00 0.00 0.00 0.00 0.00 0.00 0.00 0.00 0.00 0.00 0.00 0.00 0.00 0.00 0.01 0.01 0.02 0.02 0.01 0.01 0.00 0.00 0.00 0.00 0.00 0.00 0.00 0.00 0.00 0.00 0.00 0.00 0.00 0.00 0.00 0.00 0.00 0.00 0.00 0.00
0.00 0.00 0.00 0.01 0.01 0.00 0.00 0.00 0.00 0.00 0.00 0.00 0.00 0.00 0.00 0.00 0.00 0.00 0.00 0.00 0.00 0.00 0.00 0.01 0.01 0.01 0.01 0.01 0.01 0.00 0.00 0.00 0.00 0.00 0.00 0.00 0.00 0.00 0.00 0.00 0.00 0.00 0.00 0.00 0.00 0.00 0.00 0.00 0.00
MSLP
1011.06 1011.40 1011.78 1012.14 1012.39 1012.50 1012.45 1012.28 1012.04 1011.82 1011.66 1011.60 1011.65 1011.77 1011.89 1011.97 1011.96 1011.87 1011.75 1011.65 1011.67 1011.87 1012.29 1012.90 1013.65 1014.42 1015.13 1015.67 1016.02 1016.18 1016.19 1016.15 1016.14 1016.23 1016.43 1016.75 1017.12 1017.48 1017.77 1017.94 1017.99 1017.95 1017.86 1017.80 1017.78 1017.85 1017.97 1018.12 1018.25
1011.16 1011.55 1011.96 1012.29 1012.49 1012.50 1012.34 1012.05 1011.69 1011.36 1011.12 1011.00 1011.02 1011.11 1011.24 1011.34 1011.36 1011.33 1011.27 1011.25 1011.36 1011.66 1012.18 1012.89 1013.73 1014.58 1015.35 1015.95 1016.34 1016.52 1016.55 1016.52 1016.50 1016.57 1016.75 1017.02 1017.35 1017.66 1017.90 1018.03 1018.06 1018.03 1017.97 1017.94 1017.98 1018.09 1018.25 1018.43 1018.56
1011.34 1011.76 1012.16 1012.45 1012.56 1012.47 1012.19 1011.78 1011.33 1010.92 1010.62 1010.47 1010.47 1010.56 1010.71 1010.83 1010.90 1010.91 1010.91 1010.97 1011.16 1011.53 1012.12 1012.90 1013.79 1014.70 1015.51 1016.15 1016.58 1016.80 1016.87 1016.86 1016.86 1016.93 1017.09 1017.32 1017.60 1017.85 1018.05 1018.15 1018.17 1018.14 1018.12 1018.13 1018.22 1018.37 1018.56 1018.74 1018.86
1011.57 1012.00 1012.37 1012.58 1012.59 1012.39 1012.01 1011.51 1010.99 1010.53 1010.21 1010.05 1010.05 1010.17 1010.33 1010.49 1010.59 1010.66 1010.71 1010.83 1011.07 1011.50 1012.13 1012.94 1013.86 1014.78 1015.61 1016.27 1016.73 1016.99 1017.10 1017.13 1017.16 1017.24 1017.40 1017.61 1017.85 1018.07 1018.22 1018.30 1018.32 1018.32 1018.32 1018.38 1018.51 1018.69 1018.88 1019.05 1019.14
1011.84 1012.25 1012.55 1012.67 1012.58 1012.28 1011.81 1011.25 1010.69 1010.22 1009.90 1009.77 1009.80 1009.94 1010.14 1010.32 1010.47 1010.57 1010.67 1010.83 1011.11 1011.57 1012.21 1013.02 1013.92 1014.82 1015.64 1016.30 1016.77 1017.05 1017.21 1017.29 1017.37 1017.48 1017.65 1017.86 1018.08 1018.27 1018.41 1018.48 1018.51 1018.53 1018.57 1018.67 1018.82 1019.01 1019.20 1019.33 1019.38
1012.12 1012.46 1012.67 1012.68 1012.49 1012.10 1011.57 1010.99 1010.43 1009.99 1009.72 1009.63 1009.71 1009.89 1010.12 1010.34 1010.51 1010.64 1010.78 1010.96 1011.26 1011.72 1012.35 1013.12 1013.97 1014.83 1015.60 1016.23 1016.69 1017.00 1017.19 1017.32 1017.45 1017.60 1017.80 1018.02 1018.25 1018.44 1018.57 1018.65 1018.70 1018.75 1018.83 1018.95 1019.12 1019.30 1019.47 1019.56 1019.55
1012.36 1012.61 1012.70 1012.60 1012.31 1011.86 1011.31 1010.74 1010.24 1009.87 1009.67 1009.65 1009.78 1010.00 1010.26 1010.49 1010.69 1010.84 1010.99 1011.19 1011.49 1011.93 1012.53 1013.24 1014.03 1014.81 1015.52 1016.10 1016.54 1016.85 1017.07 1017.25 1017.42 1017.62 1017.86 1018.11 1018.35 1018.54 1018.69 1018.79 1018.86 1018.93 1019.03 1019.18 1019.35 1019.52 1019.65 1019.70 1019.65
1012.52 1012.65 1012.61 1012.40 1012.04 1011.56 1011.03 1010.52 1010.10 1009.84 1009.74 1009.80 1009.99 1010.25 1010.52 1010.77 1010.96 1011.12 1011.27 1011.47 1011.76 1012.18 1012.73 1013.38 1014.08 1014.78 1015.41 1015.93 1016.34 1016.64 1016.88 1017.09 1017.32 1017.57 1017.84 1018.12 1018.38 1018.59 1018.75 1018.87 1018.96 1019.05 1019.17 1019.32 1019.49 1019.65 1019.75 1019.76 1019.67
1012.55 1012.55 1012.39 1012.10 1011.69 1011.22 1010.75 1010.34 1010.05 1009.91 1009.92 1010.08 1010.32 1010.61 1010.89 1011.12 1011.31 1011.45 1011.59 1011.78 1012.06 1012.44 1012.94 1013.52 1014.14 1014.75 1015.30 1015.76 1016.13 1016.42 1016.68 1016.92 1017.18 1017.47 1017.78 1018.09 1018.37 1018.60 1018.77 1018.90 1019.00 1019.11 1019.24 1019.39 1019.55 1019.69 1019.77 1019.75 1019.64
1012.43 1012.31 1012.06 1011.71 1011.30 1010.88 1010.52 1010.24 1010.10 1010.10 1010.23 1010.46 1010.75 1011.05 1011.32 1011.54 1011.69 1011.81 1011.93 1012.10 1012.35 1012.70 1013.14 1013.66 1014.21 1014.74 1015.22 1015.62 1015.96 1016.24 1016.50 1016.77 1017.06 1017.39 1017.73 1018.06 1018.35 1018.59 1018.77 1018.90 1019.01 1019.12 1019.25 1019.40 1019.55 1019.68 1019.74 1019.71 1019.59
1012.18 1011.97 1011.65 1011.29 1010.92 1010.60 1010.36 1010.24 1010.25 1010.39 1010.63 1010.94 1011.26 1011.55 1011.79 1011.97 1012.08 1012.17 1012.26 1012.41 1012.63 1012.95 1013.35 1013.81 1014.29 1014.76 1015.18 1015.54 1015.84 1016.12 1016.38 1016.67 1016.99 1017.34 1017.70 1018.05 1018.35 1018.59 1018.78 1018.91 1019.02 1019.12 1019.25 1019.39 1019.53 1019.65 1019.71 1019.68 1019.57
1011.83 1011.56 1011.23 1010.90 1010.61 1010.40 1010.31 1010.35 1010.52 1010.78 1011.11 1011.46 1011.79 1012.06 1012.27 1012.39 1012.46 1012.51 1012.58 1012.70 1012.90 1013.19 1013.55 1013.97 1014.40 1014.82 1015.19 1015.51 1015.80 1016.07 1016.34 1016.64 1016.98 1017.35 1017.72 1018.07 1018.38 1018.62 1018.81 1018.94 1019.04 1019.14 1019.26 1019.39 1019.53 1019.65 1019.71 1019.70 1019.60
1011.46 1011.17 1010.86 1010.58 1010.40 1010.33 1010.39 1010.57 1010.86 1011.22 1011.61 1011.98 1012.30 1012.54 1012.69 1012.77 1012.80 1012.82 1012.86 1012.97 1013.15 1013.42 1013.76 1014.14 1014.54 1014.92 1015.26 1015.56 1015.83 1016.09 1016.37 1016.68 1017.02 1017.40 1017.78 1018.13 1018.44 1018.68 1018.86 1018.99 1019.09 1019.19 1019.30 1019.43 1019.57 1019.69 1019.76 1019.77 1019.69
1011.13 1010.85 1010.58 1010.39 1010.32 1010.37 1010.56 1010.86 1011.24 1011.66 1012.06 1012.42 1012.71 1012.91 1013.02 1013.07 1013.07 1013.08 1013.12 1013.22 1013.40 1013.66 1013.98 1014.34 1014.71 1015.06 1015.37 1015.65 1015.91 1016.17 1016.45 1016.76 1017.10 1017.47 1017.85 1018.20 1018.51 1018.75 1018.93 1019.06 1019.17 1019.27 1019.38 1019.51 1019.64 1019.77 1019.86 1019.88 1019.83
1010.89 1010.64 1010.43 1010.33 1010.35 1010.51 1010.79 1011.16 1011.58 1012.01 1012.40 1012.73 1012.97 1013.13 1013.22 1013.25 1013.25 1013.27 1013.33 1013.45 1013.64 1013.91 1014.22 1014.56 1014.91 1015.23 1015.53 1015.79 1016.04 1016.29 1016.55 1016.85 1017.19 1017.54 1017.91 1018.25 1018.55 1018.79 1018.98 1019.12 1019.23 1019.34 1019.45 1019.58 1019.73 1019.86 1019.96 1020.01 1019.98
1010.77 1010.55 1010.40 1010.37 1010.47 1010.70 1011.02 1011.41 1011.82 1012.22 1012.57 1012.85 1013.05 1013.18 1013.26 1013.31 1013.35 1013.40 1013.51 1013.66 1013.88 1014.15 1014.46 1014.79 1015.12 1015.42 1015.70 1015.95 1016.18 1016.41 1016.67 1016.94 1017.26 1017.59 1017.93 1018.25 1018.54 1018.79 1018.98 1019.13 1019.25 1019.37 1019.50 1019.63 1019.78 1019.93 1020.05 1020.11 1020.11
1010.74 1010.55 1010.45 1010.48 1010.62 1010.88 1011.20 1011.56 1011.93 1012.26 1012.54 1012.77 1012.94 1013.06 1013.16 1013.26 1013.36 1013.49 1013.65 1013.86 1014.11 1014.40 1014.71 1015.02 1015.33 1015.61 1015.87 1016.10 1016.32 1016.54 1016.77 1017.02 1017.30 1017.60 1017.91 1018.20 1018.48 1018.72 1018.91 1019.08 1019.22 1019.35 1019.49 1019.64 1019.79 1019.95 1020.08 1020.17 1020.20
1010.75 1010.59 1010.54 1010.60 1010.77 1011.01 1011.30 1011.60 1011.88 1012.13 1012.34 1012.51 1012.66 1012.81 1012.96 1013.13 1013.32 1013.54 1013.78 1014.05 1014.33 1014.63 1014.93 1015.23 1015.51 1015.77 1016.01 1016.23 1016.43 1016.64 1016.85 1017.07 1017.31 1017.58 1017.84 1018.11 1018.36 1018.59 1018.79 1018.96 1019.12 1019.27 1019.42 1019.58 1019.75 1019.92 1020.07 1020.18 1020.24
1010.77 1010.65 1010.63 1010.71 1010.88 1011.09 1011.32 1011.53 1011.72 1011.87 1012.01 1012.14 1012.29 1012.47 1012.70 1012.96 1013.26 1013.58 1013.90 1014.23 1014.54 1014.84 1015.12 1015.39 1015.64 1015.87 1016.10 1016.31 1016.51 1016.70 1016.90 1017.10 1017.31 1017.53 1017.76 1017.99 1018.22 1018.43 1018.63 1018.81 1018.98 1019.15 1019.32 1019.49 1019.67 1019.85 1020.02 1020.15 1020.24
1010.75 1010.68 1010.71 1010.81 1010.97 1011.14 1011.30 1011.42 1011.50 1011.57 1011.63 1011.74 1011.90 1012.13 1012.44 1012.80 1013.21 1013.62 1014.02 1014.39 1014.71 1015.00 1015.25 1015.48 1015.69 1015.90 1016.11 1016.31 1016.52 1016.72 1016.91 1017.10 1017.29 1017.49 1017.68 1017.88 1018.08 1018.27 1018.46 1018.65 1018.84 1019.02 1019.20 1019.39 1019.58 1019.77 1019.96 1020.11 1020.23
1010.70 1010.70 1010.78 1010.91 1011.06 1011.20 1011.28 1011.31 1011.30 1011.28 1011.29 1011.37 1011.55 1011.83 1012.22 1012.68 1013.18 1013.67 1014.12 1014.51 1014.83 1015.09 1015.29 1015.47 1015.65 1015.83 1016.03 1016.24 1016.46 1016.67 1016.89 1017.09 1017.27 1017.45 1017.62 1017.79 1017.97 1018.15 1018.33 1018.52 1018.72 1018.91 1019.11 1019.31 1019.51 1019.72 1019.91 1020.09 1020.23
1010.63 1010.72 1010.87 1011.04 1011.20 1011.30 1011.32 1011.27 1011.17 1011.07 1011.03 1011.08 1011.27 1011.60 1012.05 1012.58 1013.15 1013.69 1014.18 1014.57 1014.87 1015.08 1015.24 1015.37 1015.50 1015.66 1015.85 1016.08 1016.32 1016.57 1016.82 1017.04 1017.24 1017.42 1017.59 1017.75 1017.91 1018.08 1018.25 1018.44 1018.64 1018.85 1019.06 1019.27 1019.48 1019.69 1019.90 1020.09 1020.25
1010.58 1010.77 1011.01 1011.23 1011.40 1011.47 1011.44 1011.31 1011.13 1010.95 1010.85 1010.87 1011.06 1011.40 1011.89 1012.47 1013.08 1013.65 1014.15 1014.53 1014.80 1014.97 1015.08 1015.17 1015.26 1015.41 1015.60 1015.85 1016.13 1016.42 1016.71 1016.98 1017.21 1017.40 1017.57 1017.73 1017.89 1018.05 1018.23 1018.42 1018.62 1018.83 1019.05 1019.27 1019.49 1019.70 1019.91 1020.11 1020.29
1010.58 1010.88 1011.19 1011.47 1011.65 1011.70 1011.61 1011.41 1011.15 1010.90 1010.73 1010.71 1010.86 1011.20 1011.69 1012.28 1012.90 1013.49 1013.99 1014.36 1014.61 1014.75 1014.82 1014.88 1014.96 1015.09 1015.30 1015.57 1015.89 1016.23 1016.57 1016.88 1017.15 1017.38 1017.57 1017.74 1017.90 1018.06 1018.24 1018.43 1018.64 1018.86 1019.07 1019.29 1019.51 1019.72 1019.93 1020.13 1020.31
1010.63 1011.03 1011.41 1011.72 1011.90 1011.92 1011.78 1011.51 1011.17 1010.84 1010.60 1010.51 1010.61 1010.91 1011.38 1011.96 1012.58 1013.16 1013.66 1014.02 1014.27 1014.40 1014.47 1014.52 1014.61 1014.75 1014.98 1015.28 1015.64 1016.03 1016.41 1016.77 1017.08 1017.34 1017.55 1017.74 1017.92 1018.09 1018.27 1018.46 1018.67 1018.88 1019.10 1019.31 1019.52 1019.72 1019.92 1020.11 1020.28
1010.70 1011.16 1011.58 1011.91 1012.08 1012.07 1011.87 1011.54 1011.12 1010.71 1010.39 1010.22 1010.26 1010.50 1010.92 1011.47 1012.06 1012.64 1013.14 1013.52 1013.78 1013.94 1014.04 1014.12 1014.24 1014.42 1014.68 1015.01 1015.40 1015.83 1016.25 1016.64 1016.98 1017.27 1017.52 1017.73 1017.92 1018.11 1018.29 1018.49 1018.69 1018.90 1019.11 1019.31 1019.50 1019.68 1019.86 1020.03 1020.19
1010.73 1011.22 1011.65 1011.97 1012.11 1012.06 1011.82 1011.42 1010.94 1010.46 1010.06 1009.82 1009.78 1009.95 1010.31 1010.81 1011.38 1011.94 1012.45 1012.86 1013.17 1013.39 1013.55 1013.70 1013.87 1014.09 1014.39 1014.76 1015.18 1015.63 1016.07 1016.49 1016.86 1017.18 1017.45 1017.68 1017.89 1018.09 1018.29 1018.49 1018.69 1018.88 1019.07 1019.25 1019.42 1019.58 1019.73 1019.87 1020.01
1010.66 1011.15 1011.56 1011.84 1011.94 1011.85 1011.57 1011.13 1010.61 1010.08 1009.63 1009.33 1009.22 1009.31 1009.60 1010.04 1010.57 1011.12 1011.64 1012.10 1012.47 1012.77 1013.01 1013.24 1013.49 1013.78 1014.12 1014.53 1014.97 1015.43 1015.89 1016.32 1016.70 1017.04 1017.34 1017.59 1017.83 1018.04 1018.25 1018.45 1018.64 1018.82 1018.99 1019.15 1019.29 1019.42 1019.53 1019.65 1019.76
1010.45 1010.89 1011.25 1011.49 1011.55 1011.43 1011.13 1010.69 1010.17 1009.63 1009.15 1008.81 1008.65 1008.68 1008.90 1009.27 1009.75 1010.28 1010.80 1011.29 1011.73 1012.10 1012.44 1012.76 1013.09 1013.44 1013.84 1014.27 1014.73 1015.20 1015.67 1016.10 1016.50 1016.85 1017.17 1017.45 1017.70 1017.93 1018.15 1018.35 1018.54 1018.71 1018.86 1018.99 1019.10 1019.19 1019.28 1019.36 1019.44
1010.11 1010.48 1010.78 1010.96 1010.99 1010.86 1010.58 1010.18 1009.69 1009.19 1008.74 1008.40 1008.21 1008.19 1008.34 1008.64 1009.05 1009.53 1010.03 1010.53 1011.00 1011.43 1011.85 1012.24 1012.64 1013.06 1013.50 1013.96 1014.44 1014.91 1015.38 1015.81 1016.22 1016.59 1016.92 1017.22 1017.50 1017.75 1017.98 1018.19 1018.38 1018.54 1018.67 1018.77 1018.86 1018.92 1018.97 1019.02 1019.07
Thickness
5816 5819 5822 5815 5807 5806 5801 5806 5813 5811 5814 5820 5820 5816 5811 5806 5799 5791 5813 5822 5817 5811 5802 5791 5786 5784 5781 5779 5777 5776 5774 5771 5769 5767 5765 5763 5762 5760 5758 5757 5756 5756 5755 5754 5753 5752 5751 5751 5750
5821 5821 5815 5811 5803 5795 5795 5807 5809 5812 5818 5819 5817 5813 5807 5804 5808 5807 5812 5816 5814 5809 5800 5792 5784 5781 5779 5777 5775 5773 5771 5769 5767 5765 5763 5762 5760 5758 5757 5756 5755 5754 5753 5752 5751 5750 5749 5748 5748
5820 5818 5810 5808 5802 5797 5797 5808 5811 5816 5820 5815 5810 5811 5807 5802 5803 5805 5812 5813 5810 5805 5799 5789 5782 5779 5776 5774 5772 5770 5768 5767 5764 5762 5761 5760 5758 5756 5755 5754 5753 5752 5751 5750 5749 5748 5746 5745 5745
5816 5811 5809 5803 5799 5803 5805 5811 5815 5813 5814 5814 5810 5803 5804 5806 5806 5808 5811 5810 5806 5800 5795 5786 5780 5776 5773 5771 5770 5768 5766 5764 5762 5761 5759 5758 5756 5755 5753 5752 5750 5749 5748 5747 5746 5745 5744 5743 5742
5814 5807 5800 5798 5799 5805 5812 5815 5816 5810 5807 5810 5808 5799 5795 5803 5810 5809 5808 5807 5802 5798 5793 5784 5777 5773 5770 5768 5767 5765 5764 5762 5761 5759 5757 5756 5754 5752 5751 5749 5748 5747 5746 5744 5743 5742 5741 5740 5739
5806 5804 5795 5794 5795 5802 5811 5815 5814 5809 5805 5805 5804 5796 5791 5799 5802 5804 5805 5803 5801 5797 5791 5781 5773 5770 5767 5766 5764 5763 5762 5760 5758 5757 5755 5753 5751 5750 5748 5746 5745 5744 5743 5741 5740 5739 5738 5738 5737
5800 5798 5794 5793 5791 5795 5803 5812 5808 5803 5799 5800 5803 5792 5787 5792 5797 5800 5800 5799 5798 5795 5790 5781 5774 5768 5765 5763 5762 5760 5759 5757 5756 5754 5752 5750 5749 5747 5745 5744 5742 5741 5740 5739 5737 5736 5736 5735 5734
5804 5798 5792 5791 5788 5792 5803 5807 5806 5802 5796 5802 5801 5789 5783 5787 5793 5794 5793 5792 5792 5790 5787 5780 5776 5770 5766 5762 5759 5758 5756 5755 5753 5751 5749 5748 5746 5745 5743 5742 5740 5738 5737 5736 5734 5733 5733 5732 5732
5801 5790 5787 5790 5788 5793 5801 5798 5799 5802 5796 5792 5795 5794 5793 5790 5788 5784 5783 5783 5782 5782 5781 5778 5775 5769 5767 5764 5759 5756 5754 5752 5751 5749 5747 5746 5748 5747 5744 5742 5738 5736 5734 5733 5732 5731 5730 5730 5729
5794 5787 5789 5795 5797 5796 5795 5793 5794 5790 5785 5782 5784 5785 5787 5783 5780 5775 5774 5774 5774 5773 5775 5774 5772 5767 5765 5763 5758 5756 5756 5753 5752 5751 5749 5748 5746 5745 5744 5738 5736 5734 5732 5731 5729 5729 5728 5729 5732
5794 5788 5793 5797 5799 5797 5792 5791 5791 5783 5777 5778 5775 5774 5775 5774 5772 5769 5769 5771 5770 5769 5769 5769 5766 5763 5762 5760 5756 5755 5755 5752 5751 5750 5748 5746 5744 5743 5742 5739 5736 5734 5732 5732 5729 5729 5730 5730 5730
5792 5793 5793 5794 5797 5793 5789 5787 5783 5779 5776 5779 5778 5775 5770 5767 5765 5764 5764 5765 5765 5764 5763 5762 5762 5759 5758 5756 5755 5753 5753 5751 5751 5747 5746 5745 5743 5741 5740 5737 5737 5735 5733 5731 5730 5728 5727 5727 5727
5790 5792 5795 5795 5794 5790 5786 5781 5776 5773 5775 5774 5771 5767 5763 5761 5760 5761 5761 5761 5760 5758 5758 5758 5756 5754 5752 5751 5751 5752 5751 5751 5749 5745 5743 5742 5741 5740 5738 5735 5733 5734 5732 5730 5728 5727 5726 5725 5725
5796 5794 5793 5793 5791 5787 5779 5776 5771 5766 5769 5764 5760 5756 5757 5755 5754 5753 5752 5752 5753 5753 5754 5754 5752 5750 5749 5748 5748 5748 5749 5746 5746 5743 5741 5739 5739 5737 5735 5733 5732 5732 5731 5730 5727 5726 5724 5724 5723
5797 5789 5790 5791 5788 5784 5778 5766 5763 5764 5761 5754 5751 5749 5748 5747 5748 5746 5747 5747 5748 5748 5749 5749 5748 5747 5746 5746 5746 5745 5745 5744 5743 5740 5737 5735 5735 5734 5733 5733 5732 5731 5729 5726 5725 5724 5723 5722 5722
5793 5786 5782 5787 5785 5781 5769 5756 5760 5761 5754 5746 5744 5742 5740 5739 5741 5742 5742 5742 5744 5744 5744 5745 5747 5745 5743 5743 5742 5742 5742 5741 5739 5737 5735 5733 5732 5731 5731 5732 5731 5727 5727 5726 5724 5723 5722 5721 5721
5788 5782 5780 5781 5783 5778 5767 5756 5757 5757 5750 5742 5738 5736 5735 5733 5735 5737 5739 5739 5740 5740 5740 5741 5742 5742 5741 5740 5739 5740 5738 5737 5736 5735 5734 5731 5730 5729 5730 5729 5727 5725 5726 5725 5724 5723 5721 5719 5718
5780 5781 5778 5776 5779 5773 5764 5759 5757 5753 5747 5741 5737 5734 5731 5730 5732 5736 5736 5737 5737 5738 5738 5738 5738 5738 5738 5738 5737 5737 5737 5736 5734 5734 5731 5729 5729 5727 5728 5727 5724 5725 5724 5722 5720 5718 5716 5716 5716
5785 5778 5775 5776 5779 5769 5763 5758 5756 5751 5746 5740 5737 5734 5731 5730 5733 5735 5735 5735 5735 5735 5735 5735 5735 5735 5736 5736 5736 5735 5734 5734 5733 5732 5729 5728 5727 5726 5724 5727 5722 5722 5722 5719 5719 5717 5715 5714 5714
5783 5776 5776 5775 5775 5769 5762 5759 5760 5753 5746 5743 5738 5734 5731 5729 5730 5731 5733 5734 5733 5733 5734 5733 5733 5734 5735 5735 5736 5735 5734 5734 5734 5732 5728 5727 5726 5724 5725 5723 5723 5721 5719 5717 5715 5713 5713 5713 5712
5782 5779 5776 5772 5771 5771 5762 5758 5756 5754 5751 5747 5744 5740 5737 5734 5731 5732 5733 5733 5733 5733 5734 5736 5734 5734 5734 5735 5735 5733 5731 5731 5730 5728 5727 5726 5725 5723 5723 5722 5721 5719 5719 5718 5713 5711 5709 5709 5710
5778 5785 5779 5771 5764 5765 5760 5751 5758 5757 5750 5748 5747 5745 5741 5738 5737 5735 5734 5734 5735 5736 5736 5736 5735 5734 5734 5734 5734 5732 5730 5729 5729 5728 5728 5725 5723 5722 5722 5720 5719 5717 5718 5714 5714 5712 5709 5706 5707
5782 5784 5779 5773 5767 5764 5764 5755 5763 5762 5752 5753 5752 5750 5748 5745 5742 5739 5738 5738 5739 5739 5738 5737 5736 5734 5734 5734 5732 5730 5731 5730 5730 5728 5725 5724 5723 5721 5720 5719 5717 5715 5715 5713 5710 5708 5706 5706 5704
5784 5779 5774 5772 5771 5754 5761 5754 5758 5767 5763 5762 5760 5756 5753 5750 5747 5744 5743 5741 5740 5741 5740 5738 5735 5733 5733 5732 5732 5730 5729 5728 5727 5725 5724 5724 5724 5722 5720 5718 5715 5714 5713 5710 5707 5705 5704 5702 5699
5780 5770 5758 5755 5754 5756 5766 5757 5763 5778 5779 5774 5768 5762 5759 5756 5752 5748 5745 5743 5742 5741 5740 5739 5736 5733 5732 5732 5731 5730 5729 5727 5725 5726 5724 5725 5725 5723 5718 5718 5714 5713 5709 5707 5705 5702 5701 5699 5695
5779 5776 5754 5740 5746 5760 5762 5758 5774 5785 5785 5782 5777 5772 5765 5761 5758 5755 5752 5749 5747 5745 5743 5741 5737 5735 5734 5732 5731 5730 5729 5730 5730 5726 5727 5725 5725 5724 5719 5715 5712 5710 5707 5706 5702 5703 5699 5695 5692
5777 5776 5784 5767 5761 5754 5764 5769 5780 5784 5779 5778 5777 5773 5769 5766 5764 5761 5758 5756 5753 5751 5748 5745 5741 5738 5736 5735 5732 5730 5730 5730 5729 5726 5724 5725 5722 5721 5716 5713 5710 5707 5705 5702 5700 5700 5695 5693 5691
5786 5785 5770 5762 5742 5741 5756 5764 5770 5774 5776 5776 5776 5774 5774 5772 5769 5767 5764 5761 5759 5756 5752 5749 5745 5741 5739 5737 5734 5733 5731 5729 5727 5726 5723 5722 5719 5717 5714 5711 5708 5705 5703 5700 5697 5696 5693 5689 5687
5769 5769 5768 5768 5761 5745 5744 5761 5787 5783 5783 5781 5780 5780 5779 5777 5774 5772 5769 5767 5763 5760 5756 5751 5747 5743 5740 5739 5736 5734 5731 5728 5726 5724 5722 5719 5716 5713 5710 5708 5706 5703 5701 5698 5694 5694 5690 5686 5684
5782 5776 5769 5752 5751 5754 5753 5766 5793 5792 5792 5788 5785 5784 5783 5781 5779 5777 5773 5769 5765 5761 5758 5753 5750 5746 5743 5741 5737 5733 5730 5728 5725 5723 5721 5717 5714 5711 5709 5706 5703 5701 5698 5695 5692 5689 5688 5684 5681